• In Belarus
  • List of Countries
  • For 7 days
  • Water Temperature
  • Satellite Maps
  • Weather Map
  • Weather Widgets
  • user-avatar
    Login

    Hourly Weather Zyabloe

    Today, 18 July, Wednesday

    Time Temperature Precipitation Wind Pressure Humidity
    00:00 +19°C° 0 mm 3 mps 731 mmHg 96%
    01:00 +19°C° 0 mm 3 mps 731 mmHg 96%
    02:00 +18°C° 0 mm 2 mps 731 mmHg 96%
    03:00 +18°C° 0 mm 2 mps 731 mmHg 96%
    04:00 +18°C° 0 mm 3 mps 731 mmHg 96%
    05:00 +18°C° 0 mm 4 mps 731 mmHg 96%
    06:00 +19°C° 0 mm 4 mps 731 mmHg 93%
    07:00 +20°C° 0 mm 5 mps 730 mmHg 91%
    08:00 +21°C° 0 mm 5 mps 730 mmHg 87%
    09:00 +21°C° 0.4 mm 6 mps 730 mmHg 86%
    10:00 +22°C° 0.4 mm 6 mps 730 mmHg 86%
    11:00 +22°C° 0.4 mm 6 mps 730 mmHg 85%
    12:00 +22°C° 0.5 mm 6 mps 730 mmHg 84%
    13:00 +23°C° 0.5 mm 6 mps 730 mmHg 84%
    14:00 +25°C° 0 mm 5 mps 730 mmHg 82%
    15:00 +23°C° 0.3 mm 5 mps 730 mmHg 82%
    16:00 +23°C° 0.3 mm 5 mps 730 mmHg 83%
    17:00 +23°C° 0.3 mm 5 mps 730 mmHg 84%
    18:00 +22°C° 0.1 mm 4 mps 730 mmHg 87%
    19:00 +21°C° 0.1 mm 3 mps 730 mmHg 91%
    20:00 +20°C° 0.1 mm 3 mps 730 mmHg 95%
    21:00 +19°C° 0 mm 3 mps 730 mmHg 96%
    22:00 +19°C° 0 mm 3 mps 730 mmHg 97%
    23:00 +18°C° 0 mm 3 mps 730 mmHg 97%

    Tomorrow, 19 July, Thursday

    Time Temperature Precipitation Wind Pressure Humidity
    00:00 +18°C° 0 mm 3 mps 730 mmHg 98%
    01:00 +18°C° 0 mm 2 mps 730 mmHg 98%
    02:00 +18°C° 0 mm 2 mps 730 mmHg 98%
    03:00 +19°C° 0.1 mm 2 mps 730 mmHg 98%
    04:00 +19°C° 0.1 mm 2 mps 730 mmHg 97%
    05:00 +19°C° 0.1 mm 2 mps 730 mmHg 97%
    06:00 +20°C° 0.2 mm 2 mps 730 mmHg 95%
    07:00 +20°C° 0.2 mm 3 mps 730 mmHg 93%
    08:00 +21°C° 0.2 mm 3 mps 730 mmHg 90%
    09:00 +22°C° 0.5 mm 3 mps 730 mmHg 87%
    10:00 +22°C° 0.5 mm 3 mps 730 mmHg 84%
    11:00 +24°C° 0.5 mm 3 mps 730 mmHg 80%
    12:00 +25°C° 1.5 mm 3 mps 730 mmHg 80%
    13:00 +25°C° 1.5 mm 3 mps 730 mmHg 79%
    14:00 +26°C° 1.5 mm 3 mps 730 mmHg 78%
    15:00 +25°C° 0.9 mm 3 mps 730 mmHg 79%
    16:00 +25°C° 0.9 mm 2 mps 730 mmHg 80%
    17:00 +25°C° 0.9 mm 2 mps 730 mmHg 81%
    18:00 +24°C° 0.1 mm 2 mps 730 mmHg 85%
    19:00 +23°C° 0.1 mm 2 mps 730 mmHg 89%
    20:00 +20°C° 0.1 mm 2 mps 730 mmHg 93%
    21:00 +20°C° 0 mm 2 mps 730 mmHg 94%
    22:00 +20°C° 0 mm 2 mps 730 mmHg 95%
    23:00 +20°C° 0 mm 1 mps 730 mmHg 96%

    Day after tomorrow, 20 July, Friday

    Time Temperature Precipitation Wind Pressure Humidity
    00:00 +20°C° 0 mm 1 mps 731 mmHg 96%
    01:00 +19°C° 0 mm 1 mps 731 mmHg 96%
    02:00 +19°C° 0 mm 1 mps 731 mmHg 96%
    03:00 +19°C° 0 mm 1 mps 731 mmHg 96%
    04:00 +20°C° 0 mm 1 mps 731 mmHg 96%
    05:00 +20°C° 0 mm 1 mps 731 mmHg 96%
    06:00 +21°C° 0 mm 1 mps 731 mmHg 94%
    07:00 +22°C° 0 mm 1 mps 731 mmHg 91%
    08:00 +23°C° 0 mm 1 mps 732 mmHg 88%
    09:00 +24°C° 0.2 mm 1 mps 732 mmHg 85%
    10:00 +25°C° 0.2 mm 1 mps 732 mmHg 81%
    11:00 +26°C° 0.2 mm 1 mps 732 mmHg 77%
    12:00 +26°C° 1.1 mm 1 mps 732 mmHg 76%
    13:00 +27°C° 1.1 mm 1 mps 732 mmHg 74%
    14:00 +27°C° 1.1 mm 1 mps 732 mmHg 72%
    15:00 +27°C° 0.4 mm 1 mps 732 mmHg 74%
    16:00 +27°C° 0.4 mm 1 mps 732 mmHg 76%
    17:00 +27°C° 0.4 mm 1 mps 732 mmHg 78%
    18:00 +25°C° 0.1 mm 1 mps 732 mmHg 82%
    19:00 +24°C° 0.1 mm 1 mps 732 mmHg 86%
    20:00 +23°C° 0.1 mm 1 mps 732 mmHg 89%
    21:00 +22°C° 0 mm 1 mps 732 mmHg 91%
    22:00 +22°C° 0 mm 1 mps 732 mmHg 92%
    23:00 +21°C° 0 mm 1 mps 732 mmHg 93%

    21 July, Saturday

    Time Temperature Precipitation Wind Pressure Humidity
    00:00 +21°C° 0 mm 1 mps 732 mmHg 94%
    01:00 +21°C° 0 mm 1 mps 733 mmHg 94%
    02:00 +20°C° 0 mm 1 mps 733 mmHg 95%
    03:00 +20°C° 0.1 mm 1 mps 733 mmHg 95%
    04:00 +21°C° 0.1 mm 1 mps 733 mmHg 96%
    05:00 +21°C° 0.1 mm 1 mps 733 mmHg 96%
    06:00 +21°C° 0 mm 2 mps 733 mmHg 92%
    07:00 +23°C° 0 mm 2 mps 733 mmHg 88%
    08:00 +25°C° 0 mm 2 mps 733 mmHg 84%
    09:00 +26°C° 0.1 mm 2 mps 733 mmHg 79%
    10:00 +27°C° 0.1 mm 2 mps 733 mmHg 74%
    11:00 +28°C° 0.1 mm 2 mps 733 mmHg 69%
    12:00 +28°C° 0.3 mm 2 mps 733 mmHg 68%
    13:00 +28°C° 0.3 mm 2 mps 733 mmHg 66%
    14:00 +29°C° 0.3 mm 2 mps 733 mmHg 65%
    15:00 +29°C° 0.5 mm 2 mps 733 mmHg 68%
    16:00 +28°C° 0.5 mm 2 mps 733 mmHg 70%
    17:00 +28°C° 0.5 mm 2 mps 733 mmHg 73%
    18:00 +27°C° 0.3 mm 2 mps 733 mmHg 77%
    19:00 +25°C° 0.3 mm 1 mps 733 mmHg 82%
    20:00 +23°C° 0.3 mm 1 mps 733 mmHg 86%
    21:00 +23°C° 0.2 mm 1 mps 733 mmHg 88%
    22:00 +22°C° 0.2 mm 1 mps 733 mmHg 90%
    23:00 +22°C° 0.2 mm 1 mps 733 mmHg 92%

    22 July, Sunday

    Time Temperature Precipitation Wind Pressure Humidity
    00:00 +21°C° 0.1 mm 1 mps 733 mmHg 92%
    01:00 +21°C° 0.1 mm 1 mps 733 mmHg 93%
    02:00 +21°C° 0.1 mm 1 mps 733 mmHg 94%
    03:00 +21°C° 0 mm 1 mps 733 mmHg 94%
    04:00 +21°C° 0 mm 1 mps 733 mmHg 94%
    05:00 +21°C° 0 mm 1 mps 733 mmHg 94%
    06:00 +22°C° 0.1 mm 1 mps 733 mmHg 90%
    07:00 +24°C° 0.1 mm 1 mps 734 mmHg 86%
    08:00 +25°C° 0.1 mm 2 mps 734 mmHg 82%
    09:00 +26°C° 0.3 mm 2 mps 734 mmHg 78%
    10:00 +27°C° 0.3 mm 2 mps 733 mmHg 74%
    11:00 +27°C° 0.3 mm 3 mps 733 mmHg 69%
    12:00 +28°C° 0.2 mm 3 mps 733 mmHg 68%
    13:00 +28°C° 0.2 mm 2 mps 733 mmHg 67%
    14:00 +28°C° 0.2 mm 2 mps 733 mmHg 66%
    15:00 +28°C° 0.5 mm 2 mps 733 mmHg 68%
    16:00 +28°C° 0.5 mm 2 mps 733 mmHg 71%
    17:00 +28°C° 0.5 mm 2 mps 733 mmHg 73%
    18:00 +26°C° 0.3 mm 2 mps 733 mmHg 77%
    19:00 +25°C° 0.3 mm 2 mps 733 mmHg 82%
    20:00 +23°C° 0.3 mm 2 mps 733 mmHg 87%
    21:00 +23°C° 0.2 mm 2 mps 733 mmHg 89%
    22:00 +21°C° 0.2 mm 2 mps 733 mmHg 91%
    23:00 +21°C° 0.2 mm 2 mps 732 mmHg 93%

    23 July, Monday

    Time Temperature Precipitation Wind Pressure Humidity
    00:00 +20°C° 0 mm 2 mps 733 mmHg 94%
    01:00 +20°C° 0 mm 2 mps 733 mmHg 95%
    02:00 +20°C° 0 mm 2 mps 733 mmHg 96%
    03:00 +20°C° 0 mm 2 mps 733 mmHg 96%
    04:00 +20°C° 0 mm 2 mps 733 mmHg 97%
    05:00 +20°C° 0 mm 2 mps 733 mmHg 97%
    06:00 +21°C° 0 mm 2 mps 733 mmHg 93%
    07:00 +23°C° 0 mm 2 mps 733 mmHg 90%
    08:00 +25°C° 0 mm 2 mps 733 mmHg 86%
    09:00 +26°C° 0.1 mm 2 mps 733 mmHg 82%
    10:00 +27°C° 0.1 mm 3 mps 733 mmHg 79%
    11:00 +27°C° 0.1 mm 3 mps 733 mmHg 75%
    12:00 +28°C° 0.4 mm 3 mps 733 mmHg 73%
    13:00 +28°C° 0.4 mm 3 mps 733 mmHg 71%
    14:00 +29°C° 0.4 mm 3 mps 733 mmHg 69%
    15:00 +29°C° 0.8 mm 3 mps 733 mmHg 72%
    16:00 +28°C° 0.8 mm 3 mps 733 mmHg 74%
    17:00 +28°C° 0.8 mm 2 mps 733 mmHg 77%
    18:00 +27°C° 0.5 mm 2 mps 733 mmHg 81%
    19:00 +25°C° 0.5 mm 2 mps 733 mmHg 85%
    20:00 +24°C° 0.5 mm 2 mps 734 mmHg 88%
    21:00 +23°C° 1.3 mm 2 mps 734 mmHg 91%
    22:00 +23°C° 1.3 mm 2 mps 734 mmHg 93%
    23:00 +21°C° 1.3 mm 2 mps 734 mmHg 95%
    Show more